Regional Weather Roundup
Issued by NWS

Home | Current Version | Previous Version | Text Only | Print | Product List | Glossary Off
Versions: 1 2 3 4 5 6 7 8 9 10 11 12 13 14 15 16 17 18 19 20 21 22 23 24 25 26 27 28 29 30 31 32 33 34 35 36 37 38 39 40 41 42 43 44 45 46 47 48 49 50

000
ASUS43 KMPX 281201
RWRMN
WEATHER ROUNDUP FOR MINNESOTA
NATIONAL WEATHER SERVICE TWIN CITIES/CHANHASSEN MN
700 AM CDT SAT MAY 28 2016


NOTE: "FAIR" INDICATES FEW OR NO CLOUDS BELOW 12,000 FEET WITH NO
SIGNIFICANT WEATHER AND/OR OBSTRUCTIONS TO VISIBILITY. N/A MEANS
CURRENT SKY AND/OR WEATHER CONDITIONS ARE NOT AVAILABLE.

MNZ060>063-068>070-281300-
   Twin Cities Metro

CITY           SKY/WX    TMP DP  RH WIND       PRES   REMARKS
TWIN CITIES    CLOUDY    62  59  90 NE8       29.75F
6HR MIN TEMP:  61; 6HR MAX TEMP:  63;

ST PAUL        CLOUDY    61  59  93 N6        29.76S
CRYSTAL        CLOUDY    59  57  93 N6        29.75R FOG
EDEN PRAIRIE   CLOUDY    62  58  86 N8        29.74S FOG
6HR MIN TEMP:  61; 6HR MAX TEMP:  63;

SOUTH ST PAUL  CLOUDY    62  60  94 NE3       29.75F FOG
LAKE ELMO      CLOUDY    61  61 100 CALM      29.78S
$$
MNZ001>005-007-008-013>017-022>024-027-028-281300-
   Northwest Minnesota

CITY           SKY/WX    TMP DP  RH WIND       PRES   REMARKS
BEMIDJI        CLOUDY    56  54  92 N6        29.83F
HALLOCK        PTSUNNY   61  57  88 CALM      29.85R
ROSEAU         SUNNY     55  52  88 N3        29.87R
WARROAD        CLOUDY    59  55  88 NE6       29.87R
THIEF RVR FALL SUNNY     59  54  82 NE6       29.85F
CROOKSTON      MOSUNNY   59  57  94 CALM      29.83F
FOSSTON        CLOUDY    55  54  94 CALM      29.84F
DETROIT LAKES  CLOUDY    55  54  94 NE7       29.82F
MOORHEAD       CLOUDY    57  55  94 N5        29.81F
PARK RAPIDS    CLOUDY    57  54  89 N6        29.81S
MAHNOMEN       FAIR      53  52  97 NE3       29.83R
$$
MNZ006-009>011-018-025>026-281300-
   North Central Minnesota

CITY           SKY/WX    TMP DP  RH WIND       PRES   REMARKS
BAUDETTE       CLOUDY    58  56  93 E5        29.85S
FLAG ISLAND    CLOUDY    59  57  94 NE8       29.86S
INTL FALLS     LGT RAIN  56  55  97 CALM      29.85S FOG
6HR MIN TEMP:  56; 6HR MAX TEMP:  61; 6HR PCP:  0.03;

WASKISH        CLOUDY    55  54  94 N5        29.84S
BIG FORK       DRIZZLE   55  54  94 N5        29.81F
LONGVILLE      CLOUDY    55  54  94 CALM      29.80F
GRAND RAPIDS   CLOUDY    55  54  96 NW3       29.80F
CRANE LAKE     CLOUDY    55  54  94 N5        29.84S
ORR            CLOUDY    55  52  88 CALM      29.78F FOG
COOK           CLOUDY    55  55 100 CALM      29.80F FOG
WALKER         CLOUDY    56  53  90 N3        29.81F
$$
MNZ012-019>021-037-281300-
   Northeast Minnesota

CITY           SKY/WX    TMP DP  RH WIND       PRES   REMARKS
DULUTH         DRIZZLE   49  48  97 NE3       29.78F FOG
6HR MIN TEMP:  47; 6HR MAX TEMP:  54; 6HR PCP:  0.02;

ELY            CLOUDY    55  55 100 NE5       29.80R
HIBBING        CLOUDY    54  54 100 N3        29.78F FOG
EVELETH        CLOUDY    57  55  94 CALM      29.79F FOG
DULUTH HARBOR  CLOUDY    45  45 100 NE5       29.80R FOG
TWO HARBORS    HAZE      50  45  81 CALM      29.77F VSB<1/4
SILVER BAY     CLOUDY    54  52  94 NE10      29.76F FOG
GRAND MARAIS     N/A     47  46  97 VRB3      29.78F
G MARAIS ARPRT LGT RAIN  55  52  88 N10G17    29.81F
$$
MNZ029>031-032-039>041-046>048-054>057-064-281300-
   West Central Minnesota

CITY           SKY/WX    TMP DP  RH WIND       PRES   REMARKS
FERGUS FALLS   CLOUDY    57  57 100 NE5       29.77F
WHEATON        CLOUDY    59  57  94 N3        29.81R
MORRIS         CLOUDY    57  55  94 NE7       29.77S
ALEXANDRIA     CLOUDY    57  55  93 NE8       29.80S
ELBOW LAKE     FAIR      57  56  96 NE5       29.79F
WADENA         CLOUDY    55  54  94 N7        29.80S
GLENWOOD       CLOUDY    57  55  94 NE12      29.79S FOG
APPLETON       CLOUDY    61  55  82 NE6       29.77S
ORTONVILLE     CLOUDY    59  55  88 NE8       29.77F
MADISON        CLOUDY    61  57  88 NE12      29.76S
WILLMAR        CLOUDY    61  57  88 NE8       29.78S
$$
MNZ033>034-036-042>043-049>051-058-059-281300-
   Central Minnesota

CITY           SKY/WX    TMP DP  RH WIND       PRES   REMARKS
ST CLOUD       CLOUDY    57  55  93 NE5       29.78S
6HR MIN TEMP:  56; 6HR MAX TEMP:  57;

SAUK CENTRE    CLOUDY    57  55  94 NE5       29.79S
PAYNESVILLE    CLOUDY    57  57  99 NE7       29.79S
AITKIN         CLOUDY    57  54  88 N3        29.77S
PINE RIVER     CLOUDY    55  55 100 CALM      29.83F
BRAINERD       CLOUDY    57  55  93 N7        29.78F
STAPLES        CLOUDY    55  54  94 N6        29.79F
LONG PRAIRIE   CLOUDY    55  54  94 N5        29.80R
LITTLE FALLS   CLOUDY    55  54  94 CALM      29.79R
LITCHFIELD     CLOUDY    59  59 100 NE6       29.78S
BUFFALO        CLOUDY    58  56  93 NW5       29.79S FOG
MAPLE LAKE     CLOUDY    58  57  99 N3        29.80S
HUTCHINSON     CLOUDY    60  59  97 N6        29.76F FOG
$$
MNZ037-044-045-052-053-281300-
   East Central Minnesota

CITY           SKY/WX    TMP DP  RH WIND       PRES   REMARKS
PRINCETON        N/A     57  55  94 NE5       29.79S FOG
MORA           CLOUDY    54  52  94 CALM      29.81R
CAMBRIDGE      CLOUDY    57  50  77 N3        29.78R HAZE
RUSH CITY      CLOUDY    53  52  95 CALM      29.79R
MOOSE LAKE     CLOUDY    50  48  93 CALM      29.77S FOG
HINCKLEY       CLOUDY    52  52 100 CALM      29.79R FOG
CLOQUET        FOG       48  46  93 CALM      29.78S VSB 1/2
MCGREGOR       CLOUDY    55  54  94 N3        29.78F
$$
MNZ071>073-080-081-089-090-097-098-281300-
   Southwest Minnesota

CITY           SKY/WX    TMP DP  RH WIND       PRES   REMARKS
MONTEVIDEO     CLOUDY    59  57  94 E7        29.78R
GRANITE FALLS  CLOUDY    60  58  92 N9        29.77R
CANBY          CLOUDY    64  60  87 NE6       29.77S
MARSHALL       LGT RAIN  60  58  92 E5        29.77R
REDWOOD FALLS  CLOUDY    59  57  93 NE7       29.74F FOG
OLIVIA         CLOUDY    59  57  94 NE14      29.74F
PIPESTONE      RAIN      61  57  88 CALM      29.75S
WINDOM         DRIZZLE   63  61  94 CALM      29.75R
WORTHINGTON    LGT RAIN  60  59  96 N5        29.76R FOG
JACKSON        MIX PCPN  64  61  88 SW6       29.75R
TRACY          RAIN      60  60  99 CALM      29.76S
SLAYTON        CLOUDY    60  60 100 E7        29.76R
$$
MNZ065>067-074>077-082>085-091>093-281300-
   South Central Minnesota

CITY           SKY/WX    TMP DP  RH WIND       PRES   REMARKS
MANKATO        CLOUDY    61  57  88 NE7       29.74S
NEW ULM        CLOUDY    61  59  94 NE8       29.74S FOG
ST JAMES       CLOUDY    57  55  94 NE5       29.75R FOG
FAIRMONT       CLOUDY    64  61  88 S3        29.73S
GLENCOE        CLOUDY    61  61 100 N8        29.74F FOG
FARIBAULT      CLOUDY    61  61 100 N7        29.74S
OWATONNA       CLOUDY    63  61  94 CALM      29.75R FOG
WASECA         FOG       61  59  94 NE6       29.76S VSB 1
ALBERT LEA     CLOUDY    64  63  94 CALM      29.75S FOG
$$
MNZ078>079-086>088-094>096-281300-
   Southeast Minnesota

CITY           SKY/WX    TMP DP  RH WIND       PRES   REMARKS
ROCHESTER      CLOUDY    63  63 100 VRB6      29.77R FOG
6HR MIN TEMP:  61; 6HR MAX TEMP:  63; 6HR PCP:  0.03;

RED WING       CLOUDY    63  63 100 N6        29.70F FOG
STANTON        CLOUDY    62  61  95 N7        29.72F FOG
DODGE CENTER   CLOUDY    61  61 100 SE6       29.76R FOG
WINONA         CLOUDY    66  64  94 CALM      29.73S
AUSTIN         LGT RAIN  63  61  94 CALM      29.76R
PRESTON        CLOUDY    63  62  96 CALM      29.76R FOG
$$
ABBREVIATIONS USED IN REMARKS
   TC - TEMPERATURES IN CELSIUS
  WCI - WIND CHILL INDEX
   HX - HEAT INDEX
  VSB - VISIBILITY
$$




USA.gov is the U.S. government's official web portal to all federal, state and local government web resources and services.